weather.gov     
National Weather Service

Terminal Aerodrome Forecast
NWS Homepage
This page is being discontinued on March 12, 2014.
The same data is available at this site. Please update your bookmarks.
Thank you, and we apologize for the inconvenience.
Please send an email to SR-SRH.Webmaster@noaa.gov with any concerns.


Current Version
Previous Version:    01  02  03  04  05  06  07  08  09  10  11  12  13  14  15  16  17  18  19  20  21  22  23  24  25  
[Printable]
214
FTUS45 KGJT 281139
TAFTEX
TAF
KTEX 281139Z 2812/2912 00000KT P6SM SCT080 BKN110
     FM281500 VRB03KT P6SM VCSH SCT100 BKN150
     FM281900 15004KT P6SM VCTS SCT080CB BKN110
     FM290100 VRB03KT P6SM -SHRA OVC100
     FM290600 VRB03KT P6SM VCSH BKN100=


214
FTUS45 KGJT 281139
TAFTEX
TAF
KTEX 281139Z 2812/2912 00000KT P6SM SCT080 BKN110
     FM281500 VRB03KT P6SM VCSH SCT100 BKN150
     FM281900 15004KT P6SM VCTS SCT080CB BKN110
     FM290100 VRB03KT P6SM -SHRA OVC100
     FM290600 VRB03KT P6SM VCSH BKN100=




U.S. Dept. of Commerce
NOAA National Weather Service
1325 East West Highway
Silver Spring, MD 20910
E-mail: w-nws.webmaster@noaa.gov
Page last modified: May 16, 2007
NATIONAL WEATHER SERVICE: for Safety, for Work, for Fun - FOR LIFE